Regional Weather Roundup
Issued by NWS

Home | Current Version | Previous Version | Graphics & Text | Print | Product List | Glossary On
Versions: 1 2 3 4 5 6 7 8 9 10 11 12 13 14 15 16 17 18 19 20 21 22 23 24 25 26 27 28 29 30 31 32 33 34 35 36 37 38 39 40 41 42 43 44 45 46 47 48 49 50
000
ASUS45 KPSR 270110
RWRAZ

ARIZONA HOURLY REGIONAL WEATHER ROUNDUP
NATIONAL WEATHER SERVICE PHOENIX AZ
600 PM MST SUN MAR 26 2017

NOTE: FAIR INDICATES FEW OR NO CLOUDS BELOW 12,000 FEET WITH NO
SIGNIFICANT WEATHER AND/OR OBSTRUCTIONS TO VISIBILITY.

AZZ001>003-036-270200-
NORTHWEST ARIZONA

CITY           SKY/WX    TMP DP  RH WIND       PRES   REMARKS
BULLHEAD CITY  SUNNY     81  30  16 VRB7      29.85S
KINGMAN        CLEAR     67  16  14 SW12      29.96S
$$

AZZ004>008-015-016-018-270200-
NORTH CENTRAL ARIZONA

CITY           SKY/WX    TMP DP  RH WIND       PRES   REMARKS
GRAND CANYON   MOCLDY    50  24  36 NW6       30.05R
WILLIAMS       PTCLDY    54  19  26 W10       30.05S
PRESCOTT       CLEAR     62  27  26 W10       30.00S
FLAGSTAFF      PTCLDY    50  22  33 S13       30.05R
PAYSON         CLEAR     61  25  25 W7        30.05R
PAGE           MOCLDY    63  38  39 E6        29.93F
$$

AZZ009>014-017-270200-
NORTHEAST ARIZONA

CITY           SKY/WX    TMP DP  RH WIND       PRES   REMARKS
WINSLOW        CLEAR     64  22  20 N6        29.98R
SAINT JOHNS    PTCLDY    60  10  14 N12       29.99R
WINDOW ROCK    MOCLDY    53  26  35 SW10      30.03R
SHOW LOW       PTCLDY    54  21  28 SW14G20   30.06R
$$

AZZ023-270200-
GREATER PHOENIX AREA

CITY           SKY/WX    TMP DP  RH WIND       PRES   REMARKS
PHOENIX        MOCLDY    79  27  14 NW10      29.87S
BUCKEYE        CLEAR     81  30  16 W6        29.88S
GLENDALE       PTCLDY    81  30  16 S7        29.89S
LUKE AFB       CLEAR     79  30  16 S6        29.87R
DEER VALLEY    CLEAR     76  30  18 SW7       29.89R
SCOTTSDALE     FAIR      77  28  16 S5        29.91R
MESA-FALCON    PTCLDY   N/A N/A N/A W8        29.87S
MESA-GATEWAY   PTCLDY    77  30  18 NW6       29.90S
CHANDLER       CLEAR     79  30  17 SW7       29.89R
$$

AZZ027-028-270200-
SOUTHWEST MARICOPA COUNTY AND PINAL COUNTY

CITY           SKY/WX    TMP DP  RH WIND       PRES   REMARKS
CASA GRANDE    NOT AVBL
GILA BEND      FAIR      81  25  13 W10       29.87R
$$

AZZ503-504-507>509-270200-
SOUTHEAST ARIZONA

CITY           SKY/WX    TMP DP  RH WIND       PRES   REMARKS
TUCSON         CLEAR     77  23  13 NW7       29.94R
DAVIS-MONTHAN  CLEAR     74  24  15 NW9       29.93R
RYAN FIELD     CLEAR     75  25  15 N12       29.93S
NOGALES        CLEAR     72  26  18 SW12      29.98R
SIERRA VISTA   CLEAR     68  20  16 W14       30.01R
DOUGLAS        CLEAR     72  22  15 SW13      29.97R
SAFFORD        CLEAR     73  19  13 NW16      29.91R
$$

AZZ020-021-025-026-031-270200-
SOUTHWEST ARIZONA

CITY           SKY/WX    TMP DP  RH WIND       PRES   REMARKS
YUMA           SUNNY     81  32  17 SW6       29.87S
$$

CAZ031-033-041-043-047-048-061-270200-
SOUTHERN CALIFORNIA

CITY           SKY/WX    TMP DP  RH WIND       PRES   REMARKS
DOWNTOWN L.A.  MOSUNNY   65  52  62 VRB3      30.02S
L.A. AIRPORT   MOSUNNY   60  54  80 W15       30.03S
SAN DIEGO      MOSUNNY   65  51  60 W8        30.05F
BURBANK        MOSUNNY   64  47  53 S10       30.00F
ONTARIO        PTSUNNY   63  51  65 W12       30.00F
RIVERSIDE      MOSUNNY   66  51  58 W10       30.00F
PALM SPRINGS   SUNNY     78  45  30 NW17G23   29.89F
EL CENTRO NAS  SUNNY     82  36  19 SW13      29.87R
IMPERIAL       SUNNY     83  41  22 SW6       29.85S
BLYTHE         SUNNY     82  33  17 S7        29.85F
NEEDLES        SUNNY     83  29  14 W12       29.86S
$$

NVZ020-UTZ003-270200-
SOUTHERN NEVADA-UTAH

CITY           SKY/WX    TMP DP  RH WIND       PRES   REMARKS
LAS VEGAS      PTSUNNY   73  30  20 E15       29.86F
SALT LAKE CITY CLOUDY    53  30  41 S9        29.97R
$$

NMZ009-TXZ055-270200-
NEW MEXICO-WEST TEXAS

CITY           SKY/WX    TMP DP  RH WIND       PRES   REMARKS
ALBUQUERQUE    PTCLDY    63  22  20 N14       29.95R
EL PASO        FAIR      72  14  11 W18       29.91R
$$


........................KEY........................
SKY/WX - SKY CONDITION/WEATHER
TMP    - TEMPERATURE IN FAHRENHEIT
DP     - DEW POINT IN FAHRENHEIT
RH     - RELATIVE HUMIDITY IN PERCENT
WIND   - DIRECTION AND SPEED IN MILES PER HOUR (MPH)
VRB    - VARIABLE WIND DIRECTION
PRES   - MEAN SEA LEVEL PRESSURE IN INCHES OF MERCURY
         F - FALLING PRESSURE   R - RISING PRESSURE
         S - STEADY PRESSURE
VSB    - VISIBILITY IN MILES
HX     - HEAT INDEX IN FAHRENHEIT
WCI    - WIND CHILL INDEX IN FAHRENHEIT
TC     - TEMPERATURE IN CELSIUS WHICH IS ALSO KNOWN AS
         TEMPERATURE IN CENTIGRADE
AFB    - AIR FORCE BASE
         LUKE AFB IS LUKE AIR FORCE BASE
         DAVIS-MONTHAN IS DAVIS-MONTHAN AIR FORCE BASE
NAS    - NAVAL AIR STATION
         EL CENTRO NAS IS EL CENTRO NAVAL AIR STATION
N/A    - NOT AVAILABLE




USA.gov is the U.S. government's official web portal to all federal, state and local government web resources and services.